Back to catalog

STARLINK-32361

AliveCommunicationsVLEO
NORAD 61933·PAYLOAD·🇺🇸 United States

Launched Nov 11, 2024 from Cape Canaveral Space Force Station

Loading…

Next Passes (next 24 hours)

TLE

FreshSource: CelesTrak SupGP

Epoch: Sep 14, 2026, 20:46 UTC

1 61933C 24207X   26257.86576389 -.00018722  00000+0 -67829-3 0  2574
2 61933  43.0030 293.6979 0001572 272.1985 320.9081 15.27579141    14

Track STARLINK-32361 in real time with AllMySat

Download on the App Store